Карточка аэропорта URRP

Внимание!
Информация на этой странице в стадии наполнения.
Если вы не увидели какой-то информации, или заметили неточность - пожалуйста сообщите нам!
Спасибо!
Команда RU-STAFF
Название аэропортаПлатов
Название аэропорта (англ.)Platov
Превышение282 ft. (86 m.)
Координаты47°29.634', 39°55.482'
Высота перехода3500 ft
Эшелон переходаFL50 (QNH >= 996); FL60 (QNH < 996)
Коды ответчика1001-1017
Зона ОрВДРостов-на-Дону РПИ (URRV)
Данные METARURRP 252000Z 03005MPS CAVOK 20/15 Q1012 R05/CLRD70 NOSIG RMK QFE754/1005
Проноз погоды (TAF)URRP 251655Z 2518/2618 04003G10MPS 9999 SCT030CB TX29/2612Z TN15/2602Z TEMPO 2518/2618 35003G11MPS 6000 -SHRA SCT016 BKN030CB
NOTAMshow/hide NOTAM
AWOS   TABLE

Информация о ВПП

ВПП Длина ВПП (м.) Покрытие Курс ВПП Частота ILS
053900Цементобетон46111.5
233900Цементобетон226110.9

Диспетчерские позиции

Позывной Наименование органа УВД Частота
URRP_GNDПлатов - руление119.0
URRP_TWRПлатов-Вышка119.7
URRP_R_APPПлатов - Круг121.2
URRP_DELПлатов-деливери127.1
URRP_APPПлатов-подход128.2



Спутниковое изображение